127  
SXUS52 KTAE 232104  
OSOTAE  
OSOTAE  
NORTH FLORIDA/SOUTH ALABAMA/SOUTHWEST GEORGIA WEATHER ROUNDUP  
NATIONAL WEATHER SERVICE TALLAHASSEE FLORIDA  
400 PM EST SUN FEB 23 2020  
 
NOTE: "FAIR" INDICATES FEW OR NO CLOUDS BELOW 12,000 FEET WITH NO  
SIGNIFICANT WEATHER AND/OR OBSTRUCTIONS TO VISIBILITY.  
 
!FLZ017-115-028-034-025-232200   
..NORTH FLORIDA
 
 
 
CITY SKY/WX TMP DP RH WIND PRES REMARKS  
TALL INTL ARPT CLOUDY 68 44 42 SE8 30.18S  
FSU LOVE BLDG NOT AVBL  
APALACHICOLA N/A N/A N/A N/A MISG 30.19F  
PERRY FAIR 71 45 39 W6 30.18S  
CROSS CITY FAIR 72 46 40 SW10 30.16S  
JACKSONVILLE FAIR 68 47 46 E7 30.18S  

 
 
!FLZ112-006-005-002-011-232200   
..FLORIDA PANHANDLE
 
 
 
CITY SKY/WX TMP DP RH WIND PRES REMARKS  
MARIANNA FAIR 66 39 37 N8 30.19  
BONIFAY FAIR 66 35 31 VRB3 30.19F  
PANAMA CITY NW FAIR 64 50 60 S8 30.18F  
TYNDALL AFB FAIR 64 51 62 CALM 30.20  
TYND DRONE APT FAIR 68 51 52 CALM 30.20  
DE FUNIAK SPR FAIR 64 33 31 CALM 30.20F  
EGLIN AFB MOSUNNY 63 43 49 SE5 30.18F  
DESTIN FAIR 61 51 70 S3 30.20S  
HURLBURT NOT AVBL  
CRESTVIEW FAIR 65 31 28 NW5 30.20F  
PENSACOLA FAIR 64 48 56 SE8 30.17F  

 
 
!ALZ063-066-232200   
..SOUTH ALABAMA
 
 
 
CITY SKY/WX TMP DP RH WIND PRES REMARKS  
DOTHAN FAIR 63 31 30 S6 30.22F  
OZARK CAIRNS FAIR 64 29 27 W3 30.19F  
FT RUCKER HELI NOT AVBL  
RUCKER HELI 3 FAIR 62 29 28 SW3 30.18F  
RUCKER HELI 2 FAIR 62 30 29 E3 30.18F  
FLORALA APT FAIR 63 28 26 CALM 30.21F  
ANDALUSIA FAIR 66 27 23 NE3 30.18F  
TROY FAIR 60 24 25 CALM 30.19F  
EUFALA NOT AVBL  
MOBILE CLOUDY 63 44 50 SE12 30.16F  

 
 
!GAZ120>161-232200   
..SOUTHWEST AND SOUTH CENTRAL GEORGIA
 
 
 
CITY SKY/WX TMP DP RH WIND PRES REMARKS  
THOMASVILLE FAIR 66 36 32 NW7 30.19F  
BAINBRIDGE FAIR 64 37 35 NW7 30.21R  
MOODY AFB FAIR 69 43 39 CALM 30.17  
VALDOSTA FAIR 69 41 36 SW6 30.18R  
MOULTRIE FAIR 64 34 32 E3 30.19F  
BLAKELY CLOUDY 59 30 33 CALM 30.22S  
ALBANY FAIR 63 34 33 W5 30.23S  
TIFTON FAIR 64 38 38 CALM 30.19  
FITZGERALD FAIR 66 42 41 W5 30.22S  
CORDELE N/A 60 28 29 NW5 30.22S  
AMERICUS CLOUDY 61 30 31 SW3 30.23S  
HOMERVILLE FAIR 68 43 40 SW6 30.18S  

 
 
!GMZ750-755-770-775-232200   
..COASTAL AND BUOY OBS
 
 
 
STATION/POSITION TIME TEMP WIND PRES VSBY WAVE  
AIR SEA DIR/SP/G HT/PER  
(UTC) (F) (DEG/KT/KT) (MB) (MI) (FT/S)  
KEATON BEACH 2000 60 290/ 6/ 7 1022.4F  
CEDAR KEY 2000 67 260/ 4/ 5 1021.8F  
C TOWER 2000 59 70/ 7/ 8 1022.6F  
APALACHICOLA BUO 2050 62 60/ 6/ 8 1022.5F 2/ 4  
PANAMA CITY BUOY 2050 71 110/ 12/ 14 1021.3F 3/ 6  
MOBILE BUOY 2050 65 70/ 4/ 6 1021.5F 2/ 5  
ORANGE BCH AL BU 2050 62 67 90/ 8/ 12 1022.1F 2/ 4  

 
 
 
CLICK HERE TO GO TO PREVIOUS BULLETINS.

The Nexlab FL Page
The Nexlab GA Page
The Nexlab AL Page Main Text Page